User: anonymous   Login
Location: Easthampton
(42.2676°N, 72.6690°W)
Time: 05:26:57
(UTC+00:00)
Language:

RS-44 - Orbit

View from above orbital plane
View from above orbital plane
View from above satellite
View from above satellite

Ground track
Ground track

The orbit data is extracted from the following two-line orbital elements,

1 44909U 19096E   24111.57042873  .00000040  00000-0  11577-3 0  9994
2 44909  82.5191 143.0629 0217423 185.6172 174.2488 12.79728645201602
Epoch (UTC): 20 April 2024 13:41:25
Eccentricity: 0.0217423
inclination: 82.5191°
perigee height: 1174 km
apogee height: 1510 km
right ascension of ascending node: 143.0629°
argument of perigee: 185.6172°
revolutions per day: 12.79728645
mean anomaly at epoch: 174.2488°
orbit number at epoch: 20160

The dashed part of the orbit path shows where the satellite is in the earth's shadow,  

DLR